Aviation Digital Data Service (ADDS)

Output produced by METARs form (0813 UTC 24 May 2018)
found at http://www.aviationweather.gov/adds/metars/
 
DNAA 240700Z VRB02KT 9999 FEW009 27/22 Q1014 NOSIG
TAF DNAA 232300Z 2400/2506 20007KT CAVOK 
     BECMG 2407/2409 BKN010 
     BECMG 2412/2414 BKN013 
     PROB30 
     TEMPO 2415/2420 06018G32KT 5000 TSRA SQ BKN010 FEW021CB 
     BECMG 2420/2422 CAVOK
       
DNAA 240700Z VRB02KT 9999 FEW009 27/22 Q1014 NOSIG
TAF DNAA 232300Z 2400/2506 20007KT CAVOK 
     BECMG 2407/2409 BKN010 
     BECMG 2412/2414 BKN013 
     PROB30 
     TEMPO 2415/2420 06018G32KT 5000 TSRA SQ BKN010 FEW021CB 
     BECMG 2420/2422 CAVOK
       
TAF DNAK 240350Z 2406/2512 VRB02KT 8000 FEW010 
     BECMG 2408/2410 23010KT BKN014 
     TEMPO 2410/2417 BKN014 FEW020CB 
     BECMG 2417/2419 VRB02KT FEW011
       
TAF DNBE 240350Z 2406/2512 00000KT 8000 SCT008 
     TEMPO 2406/2408 3000 BR 
     BECMG 2408/2410 22010KT BKN011 FEW020CB 
     TEMPO 2412/2417 5000 -TSRA BKN008 FEW018CB 
     BECMG 2417/2419 00000KT SCT008
       
TAF DNCA 240345Z 2406/2512 19004KT 6000 TS BKN008 FEW019CB 
     TEMPO 2406/2408 4000 -TSRA 
     BECMG 2408/2410 25010KT NSW BKN010 FEW020CB 
     TEMPO 2412/2417 5000 -TSRA
       
TAF DNEN 240345Z 2406/2512 19005KT 8000 SCT009 
     BECMG 2408/2410 26012KT BKN011 
     TEMPO 2412/2418 3000 TSRA BKN009 FEW019CB
       
TAF DNGO 230950Z 2312/2418 24010KT CAVOK
       
DNIB 240800Z 28012KT 9999 SCT011 27/24 Q1014
TAF DNIB 240350Z 2406/2512 VRB02KT 8000 FEW010 
     BECMG 2408/2410 22010KT BKN014 
     TEMPO 2410/2417 BKN014 FEW020CB 
     BECMG 2417/2419 VRB02KT FEW011
       
DNIL 240800Z 18008KT 9999 BKN010 25/23 Q1014
TAF DNIL 232300Z 2400/2506 18008KT CAVOK 
     BECMG 2406/2408 BKN009 
     BECMG 2411/2413 BKN012 
     PROB30 2415/2418 SCT011 FEW020CB 
     BECMG 2418/2420 CAVOK
       
TAF DNIM 240345Z 2406/2512 VRB02KT 8000 BKN007 FEW019CB 
     TEMPO 2406/2408 5000 -TSRA BR 
     BECMG 2408/2410 23011KT BKN012 FEW020CB 
     TEMPO 2411/2417 3000 TSRA BKN008 FEW020CB
       
TAF DNJO 232300Z 2400/2505 24008KT CAVOK 
     BECMG 2406/2408 BKN007 
     BECMG 2412/2414 BKN011 
     PROB30 
     TEMPO 2414/2420 07020G35KT 5000 TSRA SQ BKN008 FEW017CB 
     BECMG 2420/2422 CAVOK
       
DNKA 240800Z 23010KT 9999 BKN009 27/21 Q1017
TAF DNKA 232300Z 2400/2506 22007KT CAVOK 
     BECMG 2408/2410 BKN011 
     BECMG 2412/2414 BKN014 
     PROB30 
     TEMPO 2415/2420 06018G33KT 5000 TSRA SQ BKN010 FEW021CB 
     BECMG 2420/2423 CAVOK
       
DNKN 240800Z 22017KT CAVOK 29/21 Q1015 NOSIG
TAF DNKN 240350Z 2406/2512 24010KT CAVOK 
     TEMPO 2409/2415 FEW014
       
TAF DNKT 240350Z 2406/2512 25012KT CAVOK 
     TEMPO 2409/2415 FEW014
       
TAF DNMA 232150Z 2400/2506 23011KT CAVOK
       
DNMM 240800Z VRB02KT 9999 SCT012 28/26 Q1014 NOSIG
TAF DNMM 240350Z 2406/2512 VRB02KT 8000 FEW010 
     BECMG 2408/2410 21010KT BKN014 
     TEMPO 2410/2418 BKN014 FEW020CB 
     PROB30 2413/2418 TS BKN014 FEW020CB 
     BECMG 2418/2420 VRB02KT FEW011
       
TAF DNMN 232300Z 2400/2506 23011KT CAVOK 
     BECMG 2407/2409 BKN010 
     BECMG 2412/2414 BKN013 
     PROB30 
     TEMPO 2416/2420 TS FEW012 FEW021CB 
     BECMG 2420/2422 CAVOK
       
DNPO 240700Z 00000KT 9999 SCT008 FEW019CB 23/22 Q1012 NOSIG
TAF DNPO 240345Z 2406/2512 VRB02KT 7000 TS BKN007 FEW019CB 
     BECMG 2408/2410 22010KT NSW BKN011 FEW020CB 
     TEMPO 2413/2419 -TSRA
       
TAF DNSO 232150Z 2400/2506 20008KT 9999 TS SCT013 FEW020CB 
     BECMG 2402/2404 CAVOK
       
TAF DNYO 232150Z 2400/2506 28008KT 9999 TS BKN013 FEW020CB 
     BECMG 2403/2405 CAVOK
       
TAF DNAK 240350Z 2406/2512 VRB02KT 8000 FEW010 
     BECMG 2408/2410 23010KT BKN014 
     TEMPO 2410/2417 BKN014 FEW020CB 
     BECMG 2417/2419 VRB02KT FEW011
       
DNAA 240700Z VRB02KT 9999 FEW009 27/22 Q1014 NOSIG
TAF DNAA 232300Z 2400/2506 20007KT CAVOK 
     BECMG 2407/2409 BKN010 
     BECMG 2412/2414 BKN013 
     PROB30 
     TEMPO 2415/2420 06018G32KT 5000 TSRA SQ BKN010 FEW021CB 
     BECMG 2420/2422 CAVOK
       
TAF DNAK 240350Z 2406/2512 VRB02KT 8000 FEW010 
     BECMG 2408/2410 23010KT BKN014 
     TEMPO 2410/2417 BKN014 FEW020CB 
     BECMG 2417/2419 VRB02KT FEW011
       
TAF DNBE 240350Z 2406/2512 00000KT 8000 SCT008 
     TEMPO 2406/2408 3000 BR 
     BECMG 2408/2410 22010KT BKN011 FEW020CB 
     TEMPO 2412/2417 5000 -TSRA BKN008 FEW018CB 
     BECMG 2417/2419 00000KT SCT008
       
TAF DNCA 240345Z 2406/2512 19004KT 6000 TS BKN008 FEW019CB 
     TEMPO 2406/2408 4000 -TSRA 
     BECMG 2408/2410 25010KT NSW BKN010 FEW020CB 
     TEMPO 2412/2417 5000 -TSRA
       
TAF DNEN 240345Z 2406/2512 19005KT 8000 SCT009 
     BECMG 2408/2410 26012KT BKN011 
     TEMPO 2412/2418 3000 TSRA BKN009 FEW019CB
       
TAF DNGO 230950Z 2312/2418 24010KT CAVOK
       
DNIB 240800Z 28012KT 9999 SCT011 27/24 Q1014
TAF DNIB 240350Z 2406/2512 VRB02KT 8000 FEW010 
     BECMG 2408/2410 22010KT BKN014 
     TEMPO 2410/2417 BKN014 FEW020CB 
     BECMG 2417/2419 VRB02KT FEW011
       
DNIL 240800Z 18008KT 9999 BKN010 25/23 Q1014
TAF DNIL 232300Z 2400/2506 18008KT CAVOK 
     BECMG 2406/2408 BKN009 
     BECMG 2411/2413 BKN012 
     PROB30 2415/2418 SCT011 FEW020CB 
     BECMG 2418/2420 CAVOK
       
TAF DNIM 240345Z 2406/2512 VRB02KT 8000 BKN007 FEW019CB 
     TEMPO 2406/2408 5000 -TSRA BR 
     BECMG 2408/2410 23011KT BKN012 FEW020CB 
     TEMPO 2411/2417 3000 TSRA BKN008 FEW020CB
       
TAF DNJO 232300Z 2400/2505 24008KT CAVOK 
     BECMG 2406/2408 BKN007 
     BECMG 2412/2414 BKN011 
     PROB30 
     TEMPO 2414/2420 07020G35KT 5000 TSRA SQ BKN008 FEW017CB 
     BECMG 2420/2422 CAVOK
       
DNKA 240800Z 23010KT 9999 BKN009 27/21 Q1017
TAF DNKA 232300Z 2400/2506 22007KT CAVOK 
     BECMG 2408/2410 BKN011 
     BECMG 2412/2414 BKN014 
     PROB30 
     TEMPO 2415/2420 06018G33KT 5000 TSRA SQ BKN010 FEW021CB 
     BECMG 2420/2423 CAVOK
       
DNKN 240800Z 22017KT CAVOK 29/21 Q1015 NOSIG
TAF DNKN 240350Z 2406/2512 24010KT CAVOK 
     TEMPO 2409/2415 FEW014
       
TAF DNKT 240350Z 2406/2512 25012KT CAVOK 
     TEMPO 2409/2415 FEW014
       
TAF DNMA 232150Z 2400/2506 23011KT CAVOK
       
DNMM 240800Z VRB02KT 9999 SCT012 28/26 Q1014 NOSIG
TAF DNMM 240350Z 2406/2512 VRB02KT 8000 FEW010 
     BECMG 2408/2410 21010KT BKN014 
     TEMPO 2410/2418 BKN014 FEW020CB 
     PROB30 2413/2418 TS BKN014 FEW020CB 
     BECMG 2418/2420 VRB02KT FEW011
       
TAF DNMN 232300Z 2400/2506 23011KT CAVOK 
     BECMG 2407/2409 BKN010 
     BECMG 2412/2414 BKN013 
     PROB30 
     TEMPO 2416/2420 TS FEW012 FEW021CB 
     BECMG 2420/2422 CAVOK
       
DNPO 240700Z 00000KT 9999 SCT008 FEW019CB 23/22 Q1012 NOSIG
TAF DNPO 240345Z 2406/2512 VRB02KT 7000 TS BKN007 FEW019CB 
     BECMG 2408/2410 22010KT NSW BKN011 FEW020CB 
     TEMPO 2413/2419 -TSRA
       
TAF DNSO 232150Z 2400/2506 20008KT 9999 TS SCT013 FEW020CB 
     BECMG 2402/2404 CAVOK
       
TAF DNYO 232150Z 2400/2506 28008KT 9999 TS BKN013 FEW020CB 
     BECMG 2403/2405 CAVOK
       
TAF DNBE 240350Z 2406/2512 00000KT 8000 SCT008 
     TEMPO 2406/2408 3000 BR 
     BECMG 2408/2410 22010KT BKN011 FEW020CB 
     TEMPO 2412/2417 5000 -TSRA BKN008 FEW018CB 
     BECMG 2417/2419 00000KT SCT008
       
TAF DNCA 240345Z 2406/2512 19004KT 6000 TS BKN008 FEW019CB 
     TEMPO 2406/2408 4000 -TSRA 
     BECMG 2408/2410 25010KT NSW BKN010 FEW020CB 
     TEMPO 2412/2417 5000 -TSRA
       
DNAA 240700Z VRB02KT 9999 FEW009 27/22 Q1014 NOSIG
TAF DNAA 232300Z 2400/2506 20007KT CAVOK 
     BECMG 2407/2409 BKN010 
     BECMG 2412/2414 BKN013 
     PROB30 
     TEMPO 2415/2420 06018G32KT 5000 TSRA SQ BKN010 FEW021CB 
     BECMG 2420/2422 CAVOK
       
TAF DNAK 240350Z 2406/2512 VRB02KT 8000 FEW010 
     BECMG 2408/2410 23010KT BKN014 
     TEMPO 2410/2417 BKN014 FEW020CB 
     BECMG 2417/2419 VRB02KT FEW011
       
TAF DNBE 240350Z 2406/2512 00000KT 8000 SCT008 
     TEMPO 2406/2408 3000 BR 
     BECMG 2408/2410 22010KT BKN011 FEW020CB 
     TEMPO 2412/2417 5000 -TSRA BKN008 FEW018CB 
     BECMG 2417/2419 00000KT SCT008
       
TAF DNCA 240345Z 2406/2512 19004KT 6000 TS BKN008 FEW019CB 
     TEMPO 2406/2408 4000 -TSRA 
     BECMG 2408/2410 25010KT NSW BKN010 FEW020CB 
     TEMPO 2412/2417 5000 -TSRA
       
TAF DNEN 240345Z 2406/2512 19005KT 8000 SCT009 
     BECMG 2408/2410 26012KT BKN011 
     TEMPO 2412/2418 3000 TSRA BKN009 FEW019CB
       
TAF DNGO 230950Z 2312/2418 24010KT CAVOK
       
DNIB 240800Z 28012KT 9999 SCT011 27/24 Q1014
TAF DNIB 240350Z 2406/2512 VRB02KT 8000 FEW010 
     BECMG 2408/2410 22010KT BKN014 
     TEMPO 2410/2417 BKN014 FEW020CB 
     BECMG 2417/2419 VRB02KT FEW011
       
DNIL 240800Z 18008KT 9999 BKN010 25/23 Q1014
TAF DNIL 232300Z 2400/2506 18008KT CAVOK 
     BECMG 2406/2408 BKN009 
     BECMG 2411/2413 BKN012 
     PROB30 2415/2418 SCT011 FEW020CB 
     BECMG 2418/2420 CAVOK
       
TAF DNIM 240345Z 2406/2512 VRB02KT 8000 BKN007 FEW019CB 
     TEMPO 2406/2408 5000 -TSRA BR 
     BECMG 2408/2410 23011KT BKN012 FEW020CB 
     TEMPO 2411/2417 3000 TSRA BKN008 FEW020CB
       
TAF DNJO 232300Z 2400/2505 24008KT CAVOK 
     BECMG 2406/2408 BKN007 
     BECMG 2412/2414 BKN011 
     PROB30 
     TEMPO 2414/2420 07020G35KT 5000 TSRA SQ BKN008 FEW017CB 
     BECMG 2420/2422 CAVOK
       
DNKA 240800Z 23010KT 9999 BKN009 27/21 Q1017
TAF DNKA 232300Z 2400/2506 22007KT CAVOK 
     BECMG 2408/2410 BKN011 
     BECMG 2412/2414 BKN014 
     PROB30 
     TEMPO 2415/2420 06018G33KT 5000 TSRA SQ BKN010 FEW021CB 
     BECMG 2420/2423 CAVOK
       
DNKN 240800Z 22017KT CAVOK 29/21 Q1015 NOSIG
TAF DNKN 240350Z 2406/2512 24010KT CAVOK 
     TEMPO 2409/2415 FEW014
       
TAF DNKT 240350Z 2406/2512 25012KT CAVOK 
     TEMPO 2409/2415 FEW014
       
TAF DNMA 232150Z 2400/2506 23011KT CAVOK
       
DNMM 240800Z VRB02KT 9999 SCT012 28/26 Q1014 NOSIG
TAF DNMM 240350Z 2406/2512 VRB02KT 8000 FEW010 
     BECMG 2408/2410 21010KT BKN014 
     TEMPO 2410/2418 BKN014 FEW020CB 
     PROB30 2413/2418 TS BKN014 FEW020CB 
     BECMG 2418/2420 VRB02KT FEW011
       
TAF DNMN 232300Z 2400/2506 23011KT CAVOK 
     BECMG 2407/2409 BKN010 
     BECMG 2412/2414 BKN013 
     PROB30 
     TEMPO 2416/2420 TS FEW012 FEW021CB 
     BECMG 2420/2422 CAVOK
       
DNPO 240700Z 00000KT 9999 SCT008 FEW019CB 23/22 Q1012 NOSIG
TAF DNPO 240345Z 2406/2512 VRB02KT 7000 TS BKN007 FEW019CB 
     BECMG 2408/2410 22010KT NSW BKN011 FEW020CB 
     TEMPO 2413/2419 -TSRA
       
TAF DNSO 232150Z 2400/2506 20008KT 9999 TS SCT013 FEW020CB 
     BECMG 2402/2404 CAVOK
       
TAF DNYO 232150Z 2400/2506 28008KT 9999 TS BKN013 FEW020CB 
     BECMG 2403/2405 CAVOK
       
TAF DNEN 240345Z 2406/2512 19005KT 8000 SCT009 
     BECMG 2408/2410 26012KT BKN011 
     TEMPO 2412/2418 3000 TSRA BKN009 FEW019CB
       
DNAA 240700Z VRB02KT 9999 FEW009 27/22 Q1014 NOSIG
TAF DNAA 232300Z 2400/2506 20007KT CAVOK 
     BECMG 2407/2409 BKN010 
     BECMG 2412/2414 BKN013 
     PROB30 
     TEMPO 2415/2420 06018G32KT 5000 TSRA SQ BKN010 FEW021CB 
     BECMG 2420/2422 CAVOK
       
TAF DNAK 240350Z 2406/2512 VRB02KT 8000 FEW010 
     BECMG 2408/2410 23010KT BKN014 
     TEMPO 2410/2417 BKN014 FEW020CB 
     BECMG 2417/2419 VRB02KT FEW011
       
TAF DNBE 240350Z 2406/2512 00000KT 8000 SCT008 
     TEMPO 2406/2408 3000 BR 
     BECMG 2408/2410 22010KT BKN011 FEW020CB 
     TEMPO 2412/2417 5000 -TSRA BKN008 FEW018CB 
     BECMG 2417/2419 00000KT SCT008
       
TAF DNCA 240345Z 2406/2512 19004KT 6000 TS BKN008 FEW019CB 
     TEMPO 2406/2408 4000 -TSRA 
     BECMG 2408/2410 25010KT NSW BKN010 FEW020CB 
     TEMPO 2412/2417 5000 -TSRA
       
TAF DNEN 240345Z 2406/2512 19005KT 8000 SCT009 
     BECMG 2408/2410 26012KT BKN011 
     TEMPO 2412/2418 3000 TSRA BKN009 FEW019CB
       
TAF DNGO 230950Z 2312/2418 24010KT CAVOK
       
DNIB 240800Z 28012KT 9999 SCT011 27/24 Q1014
TAF DNIB 240350Z 2406/2512 VRB02KT 8000 FEW010 
     BECMG 2408/2410 22010KT BKN014 
     TEMPO 2410/2417 BKN014 FEW020CB 
     BECMG 2417/2419 VRB02KT FEW011
       
DNIL 240800Z 18008KT 9999 BKN010 25/23 Q1014
TAF DNIL 232300Z 2400/2506 18008KT CAVOK 
     BECMG 2406/2408 BKN009 
     BECMG 2411/2413 BKN012 
     PROB30 2415/2418 SCT011 FEW020CB 
     BECMG 2418/2420 CAVOK
       
TAF DNIM 240345Z 2406/2512 VRB02KT 8000 BKN007 FEW019CB 
     TEMPO 2406/2408 5000 -TSRA BR 
     BECMG 2408/2410 23011KT BKN012 FEW020CB 
     TEMPO 2411/2417 3000 TSRA BKN008 FEW020CB
       
TAF DNJO 232300Z 2400/2505 24008KT CAVOK 
     BECMG 2406/2408 BKN007 
     BECMG 2412/2414 BKN011 
     PROB30 
     TEMPO 2414/2420 07020G35KT 5000 TSRA SQ BKN008 FEW017CB 
     BECMG 2420/2422 CAVOK
       
DNKA 240800Z 23010KT 9999 BKN009 27/21 Q1017
TAF DNKA 232300Z 2400/2506 22007KT CAVOK 
     BECMG 2408/2410 BKN011 
     BECMG 2412/2414 BKN014 
     PROB30 
     TEMPO 2415/2420 06018G33KT 5000 TSRA SQ BKN010 FEW021CB 
     BECMG 2420/2423 CAVOK
       
DNKN 240800Z 22017KT CAVOK 29/21 Q1015 NOSIG
TAF DNKN 240350Z 2406/2512 24010KT CAVOK 
     TEMPO 2409/2415 FEW014
       
TAF DNKT 240350Z 2406/2512 25012KT CAVOK 
     TEMPO 2409/2415 FEW014
       
TAF DNMA 232150Z 2400/2506 23011KT CAVOK
       
DNMM 240800Z VRB02KT 9999 SCT012 28/26 Q1014 NOSIG
TAF DNMM 240350Z 2406/2512 VRB02KT 8000 FEW010 
     BECMG 2408/2410 21010KT BKN014 
     TEMPO 2410/2418 BKN014 FEW020CB 
     PROB30 2413/2418 TS BKN014 FEW020CB 
     BECMG 2418/2420 VRB02KT FEW011
       
TAF DNMN 232300Z 2400/2506 23011KT CAVOK 
     BECMG 2407/2409 BKN010 
     BECMG 2412/2414 BKN013 
     PROB30 
     TEMPO 2416/2420 TS FEW012 FEW021CB 
     BECMG 2420/2422 CAVOK
       
DNPO 240700Z 00000KT 9999 SCT008 FEW019CB 23/22 Q1012 NOSIG
TAF DNPO 240345Z 2406/2512 VRB02KT 7000 TS BKN007 FEW019CB 
     BECMG 2408/2410 22010KT NSW BKN011 FEW020CB 
     TEMPO 2413/2419 -TSRA
       
TAF DNSO 232150Z 2400/2506 20008KT 9999 TS SCT013 FEW020CB 
     BECMG 2402/2404 CAVOK
       
TAF DNYO 232150Z 2400/2506 28008KT 9999 TS BKN013 FEW020CB 
     BECMG 2403/2405 CAVOK
       
DNIB 240800Z 28012KT 9999 SCT011 27/24 Q1014
TAF DNIB 240350Z 2406/2512 VRB02KT 8000 FEW010 
     BECMG 2408/2410 22010KT BKN014 
     TEMPO 2410/2417 BKN014 FEW020CB 
     BECMG 2417/2419 VRB02KT FEW011
       
DNIL 240800Z 18008KT 9999 BKN010 25/23 Q1014
TAF DNIL 232300Z 2400/2506 18008KT CAVOK 
     BECMG 2406/2408 BKN009 
     BECMG 2411/2413 BKN012 
     PROB30 2415/2418 SCT011 FEW020CB 
     BECMG 2418/2420 CAVOK
       
TAF DNJO 232300Z 2400/2505 24008KT CAVOK 
     BECMG 2406/2408 BKN007 
     BECMG 2412/2414 BKN011 
     PROB30 
     TEMPO 2414/2420 07020G35KT 5000 TSRA SQ BKN008 FEW017CB 
     BECMG 2420/2422 CAVOK
       
DNKA 240800Z 23010KT 9999 BKN009 27/21 Q1017
TAF DNKA 232300Z 2400/2506 22007KT CAVOK 
     BECMG 2408/2410 BKN011 
     BECMG 2412/2414 BKN014 
     PROB30 
     TEMPO 2415/2420 06018G33KT 5000 TSRA SQ BKN010 FEW021CB 
     BECMG 2420/2423 CAVOK
       
DNKN 240800Z 22017KT CAVOK 29/21 Q1015 NOSIG
TAF DNKN 240350Z 2406/2512 24010KT CAVOK 
     TEMPO 2409/2415 FEW014
       
DNMM 240800Z VRB02KT 9999 SCT012 28/26 Q1014 NOSIG
TAF DNMM 240350Z 2406/2512 VRB02KT 8000 FEW010 
     BECMG 2408/2410 21010KT BKN014 
     TEMPO 2410/2418 BKN014 FEW020CB 
     PROB30 2413/2418 TS BKN014 FEW020CB 
     BECMG 2418/2420 VRB02KT FEW011
       
TAF DNMA 232150Z 2400/2506 23011KT CAVOK
       
TAF DNMN 232300Z 2400/2506 23011KT CAVOK 
     BECMG 2407/2409 BKN010 
     BECMG 2412/2414 BKN013 
     PROB30 
     TEMPO 2416/2420 TS FEW012 FEW021CB 
     BECMG 2420/2422 CAVOK
       
DNPO 240700Z 00000KT 9999 SCT008 FEW019CB 23/22 Q1012 NOSIG
TAF DNPO 240345Z 2406/2512 VRB02KT 7000 TS BKN007 FEW019CB 
     BECMG 2408/2410 22010KT NSW BKN011 FEW020CB 
     TEMPO 2413/2419 -TSRA
       
TAF DNSO 232150Z 2400/2506 20008KT 9999 TS SCT013 FEW020CB 
     BECMG 2402/2404 CAVOK
       
TAF DNYO 232150Z 2400/2506 28008KT 9999 TS BKN013 FEW020CB 
     BECMG 2403/2405 CAVOK